Retour au catalogue

NOAA 16 DEB

ActifPO
NORAD 42359·DEBRIS·🇺🇸 United States

Lancé Sep 21, 2000 depuis Vandenberg Space Force Base

Loading…

Prochains Passages (prochaines 24 heures)

TLE

FraisSource: Space-Track

Époque: Sep 14, 2026, 08:01 UTC

1 42359U 00055RB  26257.33421713  .00003915  00000-0  10655-2 0  9996
2 42359  98.9756  81.4501 0012916 275.6370  84.3348 14.48026976543310

Suivez NOAA 16 DEB en temps réel avec AllMySat

Download on the App Store